Regional Weather Roundup
Issued by NWS

Home | Current Version | Previous Version | Graphics & Text | Print | Product List | Glossary Off
Versions: 1 2 3 4 5 6 7 8 9 10 11 12 13 14 15 16 17 18 19 20 21 22 23 24 25 26 27 28 29 30 31 32 33 34 35 36 37 38 39 40 41 42 43 44 45 46 47 48 49 50

000
ASUS43 KLOT 230708
RWRIL

ILLINOIS REGIONAL WEATHER ROUNDUP
NATIONAL WEATHER SERVICE CHICAGO/ROMEOVILLE IL
200 AM CDT WED MAY 23 2018

NOTE: "FAIR" INDICATES FEW OR NO CLOUDS BELOW 12,000 FEET WITH NO
SIGNIFICANT WEATHER AND/OR OBSTRUCTIONS TO VISIBILITY.

* THESE STATIONS ARE NOT UNDER NWS QUALITY CONTROL. THEY ALSO MAY NOT
  REPORT WEATHER SUCH AS PRECIPITATION OR FOG.

ILZ001-002-007-009-015-016-024-230800-
NORTHWEST ILLINOIS

CITY           SKY/WX    TMP DP  RH WIND       PRES   REMARKS
MOLINE         FAIR      61  59  93 E5        30.09S
STERLING*      FOG       57  57 100 CALM      30.11S VSB 3/4
SAVANNA*       FAIR      58  58  99 NE3       30.10F
$$

ILZ003-004-008-010-011-017-018-230800-
NORTH CENTRAL ILLINOIS

CITY           SKY/WX    TMP DP  RH WIND       PRES   REMARKS
ROCKFORD       FAIR      54  53  97 CALM      30.12S
FREEPORT*      FAIR      54  54 100 CALM      30.13S
ROCHELLE*      FAIR      56  56 100 CALM      30.11F FOG
DE KALB*       FAIR      55  55 100 CALM      30.12S FOG
PERU*          FAIR      62  60  93 SE5       30.11S FOG
$$

ILZ005-006-012>014-019>023-230800-
NORTHEAST ILLINOIS

CITY           SKY/WX    TMP DP  RH WIND       PRES   REMARKS
CHICAGO-OHARE  FAIR      53  50  89 CALM      30.10S
CHICAGO-MIDWAY FAIR      54  50  86 SW3       30.11R
AURORA         FOG       54  54 100 CALM      30.11S VSB 1/4
LANSING*       FAIR      48  48 100 CALM      30.12R FOG
JOLIET*        FAIR      53  53 100 CALM      30.11S FOG
WAUKEGAN       FAIR      50  50 100 CALM      30.09S FOG
DUPAGE AIRPORT FAIR      52  52 100 CALM      30.11R FOG
KANKAKEE*      FAIR      54  53  98 CALM      30.12S
WHEELING       FAIR      53  51  93 CALM      30.12R
MORRIS*        FAIR      56  55  95 CALM      30.10S FOG
ROMEOVILLE*    FAIR      53  52  99 CALM      30.11S FOG
NORTHERLY ISL    N/A     52  49  89 CALM        N/A
$$

LMZ740>746-230800-
SOUTHERN LAKE MICHIGAN

STATION/POSITION SKY/WX   TEMP    WIND        PRES    VSBY  WAVE
                          AIR SEA DIR/SP/G                  HT/PER
                          (F)     (DEG/KT/KT) (MB)    (MI)  (FT/S)
SOUTHERN BUOY              40 39  190/  4/  4 1020.3R         0
WILMETTE HARBOR            50 48  210/  2/  2   N/A           0
HARRISON CRIB              54     230/  3/  4   N/A
BURNHAM HARBOR             52     210/  1/  3   N/A
CALUMET HARBOR                    220/  2/  3 1019.2R
BURNS HARBOR               51        CALM     1020.0S
MICHIGAN CITY              49      CALM  /  1   N/A
MICHIGAN CITY 6N           49 54   CALM  /  2   N/A           0
ST. JOSEPH                 49 53   CALM  /  2 1020.1          1
$$

ILZ025>027-034>036-040-047-049-050-058-095>099-230800-
WEST-CENTRAL ILLINOIS

CITY           SKY/WX    TMP DP  RH WIND       PRES   REMARKS
QUINCY         CLEAR     68  60  75 E7        30.07S
GALESBURG*     FAIR      64  58  83 E5        30.10S
MACOMB*        CLEAR     61  59  93 E3        30.10F
JACKSONVILLE*  CLEAR     63  59  88 E6        30.09R
PITTSFIELD*    PTCLDY    65  62  90 CALM      30.09S
$$

ILZ028>032-037-038-041>044-048-051>054-059>061-230800-
CENTRAL ILLINOIS

CITY           SKY/WX    TMP DP  RH WIND       PRES   REMARKS
PONTIAC        FAIR      57  57  98 SE5       30.12S FOG
BLOOMINGTON    FAIR      58  55  90 E8        30.12S
DECATUR        FAIR      59  56  89 NE5       30.09S
PEORIA         FAIR      62  60  93 CALM      30.10R
LACON*         FAIR      61  60  98 E7        30.09F
LINCOLN*       FAIR      61  59  92 CALM      30.10R
SPRINGFIELD    FAIR      65  60  84 NE5       30.09R
TAYLORVILLE    FAIR      66  59  79 E8        30.09R
$$

ILZ033-039-045-046-055>057-062-063-230800-
EAST-CENTRAL ILLINOIS

CITY           SKY/WX    TMP DP  RH WIND       PRES   REMARKS
CHAMPAIGN      FAIR      61  57  87 NE7       30.10S
DANVILLE*      FAIR      57  57  99 N3        30.08S
RANTOUL*       FAIR      61  58  90 NE5       30.11S
MATTOON        LGT RAIN  63  60  90 NE3       30.08S
PARIS*         FAIR      62  59  91 N3        30.10S
$$

ILZ079-100>102-230800-
SOUTHWEST ILLINOIS

CITY           SKY/WX    TMP DP  RH WIND       PRES   REMARKS
ALTON          CLEAR     66  61  83 CALM      30.08R
BELLEVILLE     CLOUDY    69  61  76 NE6       30.06R
CAHOKIA*       CLOUDY    69  61  75 CALM      30.06R
SPARTA*        PTCLDY    68  66  94 NE5       30.07S
$$

ILZ064>066-069>071-074>076-080>082-084>086-088>090-092>094-230800-
SOUTH-CENTRAL ILLINOIS

CITY           SKY/WX    TMP DP  RH WIND       PRES   REMARKS
CARBONDALE     FAIR      66  65  96 CALM      30.05S
CAIRO*         FAIR      70  70 100 CALM      30.05S
EFFINGHAM*     FAIR      67  59  76 CALM      30.09S
MARION         FAIR      65  64  98 CALM      30.06S
MT. VERNON       N/A     67  61  81 N6        30.06S
CENTRALIA*     CLOUDY    70  62  76 CALM      30.06S
SALEM*         FAIR      70  59  67 NE5       30.07S
METROPOLIS*    FAIR      68  67  97 CALM      30.05F FOG
$$

ILZ067-068-072-073-078-083-087-091-230800-
SOUTHEAST ILLINOIS

CITY           SKY/WX    TMP DP  RH WIND       PRES   REMARKS
LAWRENCEVILLE  FAIR      70  60  70 NE7       30.06R
FLORA*         FAIR      69  61  76 N3        30.07R
FAIRFIELD*     FAIR      69  61  76 N5        30.05S
HARRISBURG*    FAIR      67  65  93 CALM      30.05S
ROBINSON*      FAIR      64  61  90 NE5       30.08S
CARMI*         FAIR      67  62  84 N5        30.04S
$$

ABBREVIATIONS USED IN REMARKS
   TC - TEMPERATURE IN CELSIUS
  WCI - WIND CHILL INDEX
   HX - HEAT INDEX
  VSB - VISIBILITY
$$





USA.gov is the U.S. government's official web portal to all federal, state and local government web resources and services.